{"data":{"norad_id":46786,"epoch":"2026-09-17T01:22:17.894784Z","epoch_age_seconds":319396,"freshness":"STALE","line1":"1 46786U 20074AZ  26260.05715156  .03954834  12112-4  84292-3 0  9995","line2":"2 46786  53.0243  34.4088 0010748 311.3127  48.6989 16.29844660327591","mean_motion":16.2984466,"eccentricity":0.0010748,"inclination_deg":53.0243,"raan_deg":34.4088,"arg_perigee_deg":311.3127,"mean_anomaly_deg":48.6989,"bstar":0.00084292,"rev_number":32759,"period_min":88.351978279942,"perigee_km":185.89467339896,"apogee_km":200.01989767515,"semimajor_km":6571.0942855371,"source":"CELESTRAK","updated_at":"2026-09-17T09:00:35.206890Z"}}